Location: ??????
(38.1303°N, 24.0039°E)
Time: 04:37:02
(UTC+00:00)

OAO 3 Rocket - Pass Details

Date: 20 June 2021
Orbit: 629 x 682 km, 35.0° (Epoch: 30 July)

Event Time Altitude Azimuth Distance (km) Brightness Sun altitude
Exits shadow 01:51:42 16° 212° (SSW) 1,677 4.7 -11.7°
Maximum altitude 01:54:44 31° 158° (SSE) 1,141 4.2 -11.3°
Drops below altitude 10° 01:58:56 10° 97° (E) 2,056 6.3 -10.7°
Sets 02:01:32 0° 87° (E) 2,979 7.5 -10.3°
